Simultaneous Nadir Overpasses (SNOs) Predictions

Prediction of SNOs between AQUA and NOAA-19 Satellite Orbit:

Table of predicted SNOs for the next 14.0 days since TLE Epoch: 1/20/2017
Index Date (AQUA) Time (AQUA) Lat,Lon (AQUA) SZA (AQUA ) Date (NOAA-19) Time (NOAA-19) Lat,Lon (NOAA-19) SZA (NOAA-19 ) Distance(km) Time Diff (sec)
1 01/21/2017 21:44:15 80.95, 173.25 103.00 01/21/2017 21:44:05 80.96, 173.09 103.02 2.72 10
2 01/24/2017 03:18:00 -80.95, -90.18 77.51 01/24/2017 03:18:03 -80.95, -90.03 77.53 2.68 3
3 01/26/2017 08:51:46 80.96, 6.29 101.97 01/26/2017 08:51:54 80.95, 6.39 101.95 1.91 8
4 01/28/2017 14:25:30 -80.96, 102.82 78.59 01/28/2017 14:25:51 -80.95, 102.91 78.62 1.86 21
5 01/30/2017 19:09:48 -80.95, 31.96 79.21 01/30/2017 19:08:45 -80.96, 31.93 79.17 1.33 63
6 01/30/2017 19:59:15 80.95,-160.45 100.79 01/30/2017 19:59:42 80.95,-160.43 100.78 0.48 27
7 02/02/2017 00:43:34 80.96, 128.29 100.21 02/02/2017 00:42:37 80.96, 128.35 100.22 1.13 57




NCC Satellite Simultaneous Nadir Overpasses (SNOs) Prediction Service
